Location: Sawyer Lake
(45.2517°N, 88.7550°W)
Time: 19:09:42
(UTC-05:00)

Daily predictions for brighter satellites

Satellite Brightness Start Highest point End
(mag) Time Altitude Azimuth Time Altitude Azimuth Time Altitude Azimuth
Cosmos 1607 4.0 19:00:37 10° SSW 19:06:48 90° W 19:12:59 10° NE
Cosmos 1484 Rocket 3.0 19:07:18 10° S 19:11:08 78° WSW 19:15:03 10° NNW
SKYMED 2 3.6 19:09:29 10° NNE 19:13:52 89° WNW 19:18:13 10° SSW
Cosmos 1371 Rocket 4.3 19:08:44 10° NNW 19:14:02 78° WSW 19:19:21 10° SSE
IDEFIX/ARIANE 42P 4.2 19:12:08 10° SSW 19:17:02 40° W 19:21:59 10° NNW
NOAA 12 4.1 19:12:52 10° SSE 19:18:04 67° ENE 19:23:20 10° N
Cosmos 1408 Rocket 4.1 19:16:02 10° N 19:20:06 37° ENE 19:24:07 10° SE
Cosmos 2237 Rocket 2.7 19:20:06 10° SW 19:25:46 68° WNW 19:31:27 10° NNE
ATLAS CENTAUR R/B 2.5 19:22:59 10° NW 19:27:04 45° WSW 19:30:49 10° SSE
SAR-Lupe-1 4.2 19:25:38 10° S 19:29:12 78° WSW 19:32:47 10° NNW
Aureole 2 Rocket 3.0 19:26:24 10° S 19:30:44 62° ESE 19:34:58 10° NNE
Cosmos 1766 3.3 19:26:55 10° S 19:30:49 62° E 19:34:46 10° NNE
Okean 3 Rocket 3.8 19:26:30 10° NNW 19:31:04 78° W 19:35:36 10° S
Cosmos 1624 Rocket 4.4 19:26:30 10° NNW 19:31:42 67° WSW 19:36:50 10° S
ATLAS 5 CENTAUR R/B 2.5 19:29:13 10° S 19:33:29 33° ESE 19:38:03 10° NE
Resurs 01 Rocket 1.7 19:29:30 10° SSE 19:33:52 58° ENE 19:38:15 10° N
HJ-1C 3.5 19:31:13 10° SSE 19:34:29 54° ENE 19:37:48 10° N
Resurs 1-3 3.9 19:31:17 10° SE 19:35:29 47° ENE 19:39:42 10° N
USA 215 3.4 19:33:37 10° ENE 19:40:02 55° SE 19:46:23 10° SSW
Meteor 1-29 3.4 19:40:36 10° NNE 19:43:56 39° E 19:47:14 10° S
SL-16 R/B 2.2 19:39:23 10° SSW 19:45:05 81° ESE 19:50:48 10° NNE
CZ-2D R/B 4.1 19:43:00 13° SE 19:46:01 31° ENE 19:49:30 10° N
Cosmos 192 4.3 19:41:46 10° S 19:46:40 64° ESE 19:51:35 10° NNE
Cosmos 1743 Rocket 4.2 19:43:33 10° N 19:47:41 35° ENE 19:51:26 12° SE
Cosmos 1953 2.5 19:47:59 10° SSE 19:51:50 49° E 19:55:42 10° NNE
Nadezhda 4 Rocket 4.1 19:49:23 10° N 19:55:32 52° ENE 20:01:35 10° SSE
Cosmos 1072 Rocket 4.5 19:49:57 10° S 19:56:04 87° W 20:02:14 10° N
ERS-1 Rocket 4.3 19:54:54 18° E 19:56:24 21° ENE 20:00:03 10° NNE
Helios 1A 3.0 19:54:01 10° SSE 19:58:12 87° WSW 20:02:26 10° NNW
BREEZE-M DEB (TANK) 4.1 19:41:52 10° W 19:58:56 85° N 20:02:28 20° E
SeaSat 1 3.4 19:54:57 10° NE 19:59:01 25° ESE 20:03:04 10° SSE
ATLAS 3B R/B 4.3 19:52:57 10° WSW 19:59:49 36° NW 20:06:29 10° NNE
GP-B 4.2 19:57:07 10° NNE 20:00:46 24° E 20:01:21 23° E
Cosmos 1452 Rocket 3.5 19:55:48 10° NNW 20:01:05 88° ENE 20:06:21 10° SSE
Cosmos 1092 Rocket 4.3 19:55:34 10° N 20:01:28 43° ENE 20:06:37 13° SE
Cosmos 1805 3.2 19:58:50 10° S 20:02:43 65° E 20:06:39 10° NNE
H-2A R/B 3.0 20:01:10 18° SE 20:03:51 48° ENE 20:07:36 10° N
Cosmos 2219 Rocket 4.4 20:00:31 10° WSW 20:05:08 25° NW 20:09:48 10° N
Meteor 1-28 Rocket 4.3 20:01:46 10° N 20:05:20 45° WNW 20:08:54 10° SW
Cosmos 1544 3.3 20:02:02 10° SSE 20:05:36 45° E 20:09:13 10° NNE
CZ-4B DEB 2.7 20:06:22 19° SSE 20:08:33 70° ENE 20:11:49 10° N
ALOS 2.2 20:05:16 10° SSE 20:09:55 75° ENE 20:14:36 10° N
FENGYUN 3A 3.6 20:08:15 10° SSE 20:13:37 78° ENE 20:19:01 10° N
NOSS 3-2 (A) 3.6 20:10:16 10° SW 20:16:24 80° NW 20:23:10 10° NE
Meteor 2-12 Rocket 4.4 20:10:16 10° S 20:16:24 79° E 20:22:35 10° N
Cosmos 724 4.3 20:10:42 10° SSW 20:16:28 59° ESE 20:22:28 10° NE
Cosmos 1634 Rocket 4.4 20:12:50 10° SSE 20:18:30 38° E 20:24:10 10° NNE
Cosmos 468 4.4 20:14:25 10° S 20:19:36 65° ESE 20:24:48 10° NNE
CZ-4C R/B 3.8 20:18:08 10° WSW 20:23:11 35° NW 20:28:54 10° NNE
Cosmos 1766 Rocket 4.5 20:18:59 10° NNW 20:23:13 49° W 20:27:25 10° SSW
Cosmos 1420 Rocket 3.9 20:18:51 10° NNW 20:24:11 80° ENE 20:27:35 23° SSE
Cosmos 1470 3.1 20:24:32 43° ENE 20:24:32 43° ENE 20:27:55 10° NNE
Cosmos 2369 Rocket 2.5 20:21:39 10° NNW 20:27:05 46° ENE 20:28:55 35° ESE
Cosmos 2034 Rocket 4.3 20:24:21 10° SSW 20:30:36 71° W 20:36:57 10° N
H-2A R/B 4.0 20:31:47 17° NE 20:31:47 17° NE 20:33:48 10° NNE
Cosmos 1603 3.6 20:26:34 10° SSW 20:32:17 75° ESE 20:38:03 10° NNE
USA 186 3.7 20:35:11 15° NNW 20:35:11 15° NNW 20:35:43 10° NNW
Cosmos 1758 4.1 20:29:26 10° SSW 20:33:26 54° WNW 20:37:28 10° N
Cosmos 1943 Rocket 3.3 20:29:51 10° N 20:34:35 26° NE 20:35:15 26° ENE
Cosmos 1733 4.4 20:39:32 30° NNE 20:39:32 30° NNE 20:41:40 10° NNE
Helios 1B rocket 4.0 20:37:00 10° N 20:40:47 37° WNW 20:44:36 10° SW
Cosmos 1269 Rocket 3.9 20:35:51 10° SSW 20:41:06 77° ESE 20:46:25 10° NNE
ASTEX 1 3.4 20:38:48 10° N 20:43:44 78° W 20:48:37 10° SSW
Cosmos 1048 Rocket 3.9 20:40:09 10° S 20:45:26 72° ESE 20:50:41 10° NNE
ERBS 4.4 20:43:45 10° NNW 20:46:04 19° NNE 20:46:04 19° NNE
Cosmos-2242 4.1 20:42:41 10° SSW 20:46:54 46° WNW 20:51:09 10° N
Cosmos 1674 3.1 20:47:16 10° NNW 20:51:07 63° W 20:51:57 49° SSW
Exosat Rocket 4.5 20:46:17 10° NNW 20:52:38 62° ENE 20:55:51 39° SE
Envisat 3.1 20:53:17 53° ENE 20:53:21 53° ENE 20:58:19 10° N
CENTAUR R/B 2.7 20:47:48 10° S 20:59:44 11° NE 21:00:01 10° NE
NOSS 3-2 (C) 4.0 20:48:07 10° SW 20:54:12 60° NW 21:00:56 10° NE
Meteor 1-11 4.3 20:48:53 10° N 20:54:37 56° ENE 20:55:14 53° E
SJ-11-01 4.1 20:54:46 70° E 20:55:01 72° ENE 20:59:42 10° N
Cosmos 1500 Rocket 4.0 20:53:06 10° NNW 20:57:28 61° W 20:59:06 36° SSW
Cosmos 1842 Rocket 3.6 20:55:05 23° SSW 20:57:44 73° W 21:02:06 10° N
Cosmos 1939 Rocket 3.8 20:59:42 38° NNE 20:59:42 38° NNE 21:02:20 10° N
Cosmos 1627 Rocket 4.3 20:55:07 10° N 21:01:20 77° E 21:03:14 47° SSE
Cosmos 2151 3.2 20:57:11 10° N 21:00:39 58° N 21:00:39 58° N
SPOT 5 4.3 21:15:28 24° NNE 21:15:28 24° NNE 21:17:27 10° N
Cosmos 2058 4.3 21:10:25 10° N 21:12:41 32° N 21:12:41 32° N
ATLAS 5 CENTAUR R/B 3.1 21:13:23 10° WSW 21:18:01 41° NW 21:23:05 10° NNE
USA 215 3.8 21:17:38 15° NE 21:23:03 57° NNW 21:29:25 10° WSW
ERS-1 Rocket 3.4 21:34:55 57° W 21:34:55 57° W 21:39:44 10° NNW
Cosmos 1110 Rocket 4.3 21:30:22 10° NNW 21:34:54 65° NW 21:34:54 65° NW
SeaSat 1 3.2 21:31:58 10° NNE 21:36:45 50° NW 21:41:30 10° SW
ARGOS 4.3 21:43:06 33° NNE 21:43:06 33° NNE 21:46:18 10° N
Cosmos 1655 Rocket 4.1 21:35:08 10° NNW 21:41:19 68° W 21:42:01 63° SW
Cosmos 2279 Rocket 4.0 21:43:54 77° NNW 21:43:54 77° NNW 21:49:40 10° N
H-2A R/B 4.3 22:08:56 23° NNW 22:08:56 23° NNW 22:10:44 10° NNW
Cosmos 2369 Rocket 3.7 22:06:05 10° NW 22:10:43 29° W 22:10:43 29° W
Cosmos 1943 Rocket 3.4 22:13:12 10° NNW 22:16:47 38° NW 22:16:47 38° NW
Terra 4.4 22:26:56 14° N 22:26:56 14° N 22:27:37 10° N
H-2A R/B 4.3 22:34:04 19° N 22:34:04 19° N 22:35:30 10° N
CENTAUR R/B 4.0 22:38:20 10° WSW 22:46:45 32° N 22:51:04 10° NNE
